Weather History for Findlay, OH

Change the Weather History Date:

Sunday, May 25, 2014

  Actual Average Record
Temperature  
Mean Temperature 69 °F -  
Max Temperature 81 °F 70 °F 91 °F (2012)
Min Temperature 57 °F 52 °F 36 °F (1949)
Cooling Degree Days 4    
Growing Degree Days 19 (Base 50)    
Moisture  
Dew Point 49 °F    
Average Humidity 48    
Maximum Humidity 74    
Minimum Humidity 30    
Precipitation  
Precipitation 0.00 in - - ()
Sea Level Pressure  
Sea Level Pressure 30.11 in    
Wind  
Wind Speed 5 mph (South)    
Max Wind Speed 7 mph    
Max Gust Speed -    
Visibility 10 miles    
Events      
Averages and records for this station are not official NWS values.
T = Trace of Precipitation, MM = Missing Value Source: NWS Daily Summary

Daily Weather History Graph

Daily Weather History Graph

Search for Another Location

Airport:

Trip Planner

Search our weather history database for the weather conditions in past years. The results will help you decide how hot, cold, wet, or windy it might be!

Date:

Astronomy

May. 25, 2014 Rise Set
Actual Time 6:08 AM EDT 8:55 PM EDT
Civil Twilight 5:36 AM EDT 9:27 PM EDT
Nautical Twilight 4:55 AM EDT 10:08 PM EDT
Astronomical Twilight 4:09 AM EDT 10:54 PM EDT
Moon 4:14 AM EDT (5/25) 5:53 PM EDT (5/25)
Length of Visible Light 15h 50m
Length of Day
14h 46m
Waning Crescent, 10% of the Moon is Illuminated
May 25
Waning Crescent
May 28
New
Jun 5
First Quarter
Jun 13
Full
Jun 19
Last Quarter

Hourly Weather History & Observations

Time (EDT) Temp. Dew Point Humidity Pressure Visibility Wind Dir Wind Speed Gust Speed Precip Events Conditions
12:53 AM 60.1 °F 48.9 °F 67% 30.14 in 10.0 mi SSE 6.9 mph - N/A   Clear
2:53 AM 57.9 °F 48.0 °F 70% 30.13 in 10.0 mi South 5.8 mph - N/A   Clear
3:53 AM 57.0 °F 48.0 °F 72% 30.14 in 10.0 mi South 5.8 mph - N/A   Clear
5:53 AM 57.9 °F 46.9 °F 67% 30.14 in 10.0 mi South 4.6 mph - N/A   Clear
6:53 AM 57.0 °F 48.9 °F 74% 30.15 in 10.0 mi South 4.6 mph - N/A   Clear
8:53 AM 66.9 °F 51.1 °F 57% 30.17 in 10.0 mi Calm Calm - N/A   Clear
9:53 AM 72.0 °F 51.1 °F 48% 30.17 in 10.0 mi Variable 5.8 mph - N/A   Clear
11:53 AM 75.9 °F 46.9 °F 36% 30.16 in 10.0 mi SSW 3.5 mph - N/A   Clear
12:53 PM 75.9 °F 46.9 °F 36% 30.15 in 10.0 mi Variable 4.6 mph - N/A   Clear
1:53 PM 78.1 °F 48.0 °F 35% 30.13 in 10.0 mi Variable 5.8 mph - N/A   Clear
2:53 PM 79.0 °F 48.9 °F 35% 30.12 in 10.0 mi South 6.9 mph - N/A   Clear
3:53 PM 80.1 °F 46.9 °F 31% 30.10 in 10.0 mi West 4.6 mph - N/A   Clear
4:53 PM 81.0 °F 46.9 °F 30% 30.09 in 10.0 mi Calm Calm - N/A   Mostly Cloudy
5:53 PM 80.1 °F 46.9 °F 31% 30.08 in 10.0 mi SSW 3.5 mph - N/A   Clear
6:53 PM 78.1 °F 48.9 °F 36% 30.06 in 10.0 mi South 5.8 mph - N/A   Clear
7:53 PM 77.0 °F 48.0 °F 36% 30.05 in 10.0 mi SW 4.6 mph - N/A   Clear
8:53 PM 75.0 °F 48.9 °F 40% 30.06 in 10.0 mi Calm Calm - N/A   Clear
9:53 PM 71.1 °F 50.0 °F 47% 30.06 in 10.0 mi Calm Calm - N/A   Clear
10:53 PM 66.9 °F 52.0 °F 59% 30.07 in 10.0 mi SSE 4.6 mph - N/A   Clear
11:53 PM 66.9 °F 50.0 °F 54% 30.07 in 10.0 mi South 5.8 mph - N/A   Clear